COSMOS 1759

导读 | 豆包AI

COSMOS 1759是苏联(CIS,独立国家联合体继承其航天遗产)于1986年6月18日发射的“宇宙”(COSMOS)系列卫星,该系列是世界上规模最大的卫星家族,涵盖军用与民用多类任务,多数为军用卫星。作为冷战时期苏联航天布局的一环,这颗卫星延续了系列保密命名传统,具体任务细节未公开,服务于当时苏联的空间探测或军事应用需求,是苏联航天能力的见证。

基本信息
目录编号:
16798
目录名称:
COSMOS 1759
国际标识:
1986-047A
轨道中心:
EARTH
卫星名称:
COSMOS 1759
卫星全名:
--
卫星状态:
在轨 (已飞行14535 天)
发射日期:
1986-06-18 UTC
国别 :
俄罗斯(独联体) (CIS)
星等 :
--
轨道信息
数据来源 国际轨道数据
星历时间: 2026-04-04T05:03:14+0800
3小时前
查看轨道信息
半长轴: 7359.114km
偏心率: 0.0025823
轨道倾角: 82.918°
近地点辐角 101.058°
升交点赤经 243.661°
平近点角 8.347°
近地点: 961.973km
远地点: 999.981km
周期: 104.712分钟
每日圈数: 13.751958
详细信息
使用方式:
暂无
2D轨道图
3D轨道图
轨道高度分析图
轨道倾角分析图
轨道综合分析图
查看轨道综合分析图